BWA212B TTCP-TBPB

Flight info

Callsign BWA212B
Flight time 0h 29m
Altitude FL170
Route TAB R515 BGI
Aircraft B738/M-SDGIJ1LRWY/SB1

Departure

Time 2026-05-06 20:18
Airport A.N.R. Robinson International Airport (TTCP)

Arrival

Time 2026-05-06 20:47
Airport Grantley Adams International Airport (TBPB)
Time Latitude Longitude Altitude Speed Heading
2026-05-06 20:16 11.15098 -60.84132 11 ft 4 kts 217°
2026-05-06 20:16 11.15072 -60.84150 11 ft 6 kts 214°
2026-05-06 20:16 11.15037 -60.84155 11 ft 5 kts 125°
2026-05-06 20:16 11.15034 -60.84127 11 ft 0 kts 91°
2026-05-06 20:17 11.15034 -60.84119 11 ft 3 kts 91°
2026-05-06 20:17 11.15027 -60.83998 12 ft 45 kts 96°
2026-05-06 20:17 11.14984 -60.83439 12 ft 111 kts 93°
2026-05-06 20:17 11.14915 -60.82463 77 ft 159 kts 95°
2026-05-06 20:18 11.14827 -60.81306 545 ft 174 kts 95°
2026-05-06 20:18 11.14732 -60.80067 1180 ft 182 kts 94°
2026-05-06 20:18 11.14633 -60.78759 1771 ft 191 kts 92°
2026-05-06 20:18 11.14924 -60.77373 2218 ft 212 kts 64°
2026-05-06 20:19 11.15986 -60.76269 2720 ft 233 kts 35°
2026-05-06 20:19 11.17512 -60.75548 3209 ft 251 kts 26°
2026-05-06 20:19 11.19171 -60.74860 3814 ft 261 kts 27°
2026-05-06 20:19 11.20800 -60.74012 4541 ft 265 kts 34°
2026-05-06 20:20 11.22392 -60.73053 5296 ft 268 kts 34°
2026-05-06 20:20 11.24017 -60.72087 6101 ft 272 kts 34°
2026-05-06 20:20 11.25690 -60.71134 6847 ft 276 kts 32°
2026-05-06 20:20 11.27381 -60.70197 7615 ft 280 kts 32°
2026-05-06 20:21 11.29098 -60.69255 8368 ft 284 kts 32°
2026-05-06 20:21 11.30855 -60.68292 9105 ft 288 kts 32°
2026-05-06 20:21 11.32637 -60.67315 9921 ft 291 kts 31°
2026-05-06 20:21 11.34434 -60.66329 10665 ft 298 kts 31°
2026-05-06 20:22 11.36307 -60.65298 11185 ft 312 kts 31°
2026-05-06 20:22 11.38281 -60.64213 11710 ft 325 kts 30°
2026-05-06 20:22 11.40287 -60.63112 12502 ft 328 kts 30°
2026-05-06 20:22 11.42302 -60.62009 13345 ft 329 kts 30°
2026-05-06 20:23 11.44331 -60.60896 14032 ft 336 kts 29°
2026-05-06 20:23 11.46422 -60.59747 14714 ft 342 kts 29°
2026-05-06 20:23 11.48536 -60.58586 15440 ft 347 kts 29°
2026-05-06 20:23 11.50685 -60.57405 16126 ft 353 kts 28°
2026-05-06 20:24 11.52902 -60.56187 16744 ft 360 kts 28°
2026-05-06 20:24 11.55135 -60.54959 16950 ft 365 kts 28°
2026-05-06 20:24 11.57365 -60.53722 16976 ft 362 kts 30°
2026-05-06 20:24 11.59527 -60.52373 16981 ft 361 kts 33°
2026-05-06 20:25 11.61617 -60.50928 16982 ft 361 kts 34°
2026-05-06 20:25 11.63671 -60.49454 16983 ft 360 kts 35°
2026-05-06 20:25 11.65724 -60.47976 16984 ft 361 kts 35°
2026-05-06 20:25 11.67804 -60.46492 16983 ft 361 kts 34°
2026-05-06 20:26 11.69874 -60.45027 16982 ft 362 kts 34°
2026-05-06 20:26 11.71953 -60.43567 16981 ft 361 kts 34°
2026-05-06 20:26 11.74035 -60.42112 16982 ft 362 kts 34°
2026-05-06 20:26 11.76133 -60.40647 16981 ft 361 kts 34°
2026-05-06 20:27 11.78216 -60.39195 16981 ft 363 kts 34°
2026-05-06 20:27 11.80301 -60.37741 16982 ft 363 kts 34°
2026-05-06 20:27 11.82408 -60.36271 16981 ft 362 kts 34°
2026-05-06 20:27 11.84499 -60.34811 16981 ft 362 kts 34°
2026-05-06 20:28 11.86592 -60.33350 16981 ft 362 kts 34°
2026-05-06 20:28 11.88695 -60.31881 16982 ft 362 kts 34°
2026-05-06 20:28 11.90775 -60.30428 16985 ft 363 kts 34°
2026-05-06 20:28 11.92870 -60.28964 16986 ft 362 kts 34°
2026-05-06 20:29 11.94953 -60.27509 16986 ft 362 kts 34°
2026-05-06 20:29 11.97050 -60.26043 16987 ft 362 kts 34°
2026-05-06 20:29 11.99125 -60.24592 16986 ft 361 kts 34°
2026-05-06 20:29 12.01204 -60.23138 16986 ft 362 kts 34°
2026-05-06 20:30 12.03310 -60.21666 16988 ft 362 kts 34°
2026-05-06 20:30 12.07496 -60.18737 16987 ft 363 kts 34°
2026-05-06 20:30 12.09594 -60.17269 16987 ft 363 kts 34°
2026-05-06 20:31 12.11706 -60.15791 16987 ft 364 kts 34°
2026-05-06 20:31 12.13795 -60.14328 16987 ft 363 kts 34°
2026-05-06 20:31 12.15897 -60.12856 16987 ft 364 kts 34°
2026-05-06 20:31 12.17998 -60.11384 16987 ft 362 kts 34°
2026-05-06 20:32 12.20082 -60.09923 16987 ft 361 kts 34°
2026-05-06 20:32 12.22175 -60.08457 16988 ft 360 kts 34°
2026-05-06 20:32 12.24252 -60.07021 16986 ft 360 kts 32°
2026-05-06 20:32 12.26495 -60.05801 16987 ft 361 kts 24°
2026-05-06 20:33 12.28821 -60.04816 16987 ft 361 kts 21°
2026-05-06 20:33 12.31186 -60.03901 16988 ft 361 kts 20°
2026-05-06 20:33 12.33540 -60.02980 16987 ft 362 kts 21°
2026-05-06 20:33 12.35884 -60.02025 16987 ft 361 kts 22°
2026-05-06 20:34 12.38221 -60.01037 16988 ft 362 kts 22°
2026-05-06 20:34 12.40563 -60.00024 16987 ft 362 kts 22°
2026-05-06 20:34 12.42901 -59.99002 16935 ft 359 kts 23°
2026-05-06 20:34 12.45190 -59.97998 16528 ft 356 kts 23°
2026-05-06 20:35 12.47473 -59.96996 16011 ft 354 kts 23°
2026-05-06 20:35 12.49734 -59.96005 15588 ft 350 kts 23°
2026-05-06 20:35 12.51955 -59.95032 15170 ft 345 kts 24°
2026-05-06 20:35 12.54154 -59.94068 14734 ft 341 kts 24°
2026-05-06 20:36 12.56332 -59.93115 14291 ft 338 kts 24°
2026-05-06 20:36 12.58497 -59.92167 13863 ft 333 kts 24°
2026-05-06 20:36 12.60622 -59.91236 13422 ft 330 kts 24°
2026-05-06 20:36 12.62725 -59.90315 12991 ft 326 kts 24°
2026-05-06 20:37 12.64804 -59.89403 12484 ft 326 kts 25°
2026-05-06 20:37 12.66891 -59.88489 11980 ft 325 kts 25°
2026-05-06 20:37 12.68970 -59.87577 11466 ft 325 kts 25°
2026-05-06 20:37 12.71047 -59.86666 10939 ft 325 kts 25°
2026-05-06 20:38 12.73143 -59.85747 10537 ft 320 kts 25°
2026-05-06 20:38 12.75145 -59.84871 10370 ft 306 kts 25°
2026-05-06 20:38 12.77071 -59.84028 10166 ft 293 kts 25°
2026-05-06 20:38 12.78913 -59.83220 9881 ft 285 kts 25°
2026-05-06 20:39 12.80747 -59.82414 9357 ft 286 kts 26°
2026-05-06 20:39 12.82570 -59.81611 8917 ft 285 kts 26°
2026-05-06 20:39 12.84388 -59.80812 8497 ft 282 kts 26°
2026-05-06 20:39 12.86198 -59.80016 8061 ft 280 kts 26°
2026-05-06 20:40 12.87992 -59.79228 7646 ft 277 kts 26°
2026-05-06 20:40 12.89760 -59.78452 7221 ft 275 kts 25°
2026-05-06 20:40 12.91522 -59.77678 6798 ft 273 kts 26°
2026-05-06 20:40 12.93259 -59.76915 6386 ft 270 kts 26°
2026-05-06 20:41 12.94979 -59.76160 5955 ft 267 kts 26°
2026-05-06 20:41 12.96689 -59.75409 5418 ft 268 kts 26°
2026-05-06 20:41 12.98422 -59.74649 4911 ft 268 kts 26°
2026-05-06 20:41 13.00109 -59.73859 4422 ft 265 kts 31°
2026-05-06 20:42 13.01544 -59.72738 3970 ft 256 kts 52°
2026-05-06 20:42 13.02275 -59.71131 3512 ft 248 kts 77°
2026-05-06 20:42 13.02558 -59.69455 3048 ft 229 kts 81°
2026-05-06 20:42 13.02833 -59.67909 2590 ft 213 kts 78°
2026-05-06 20:43 13.03166 -59.66474 2148 ft 202 kts 76°
2026-05-06 20:43 13.03517 -59.65106 1982 ft 196 kts 75°
2026-05-06 20:43 13.03870 -59.63754 1979 ft 196 kts 75°
2026-05-06 20:43 13.04225 -59.62399 1991 ft 194 kts 75°
2026-05-06 20:44 13.04552 -59.61150 1979 ft 170 kts 75°
2026-05-06 20:44 13.04831 -59.60006 1962 ft 160 kts 78°
2026-05-06 20:44 13.05056 -59.58916 1772 ft 154 kts 78°
2026-05-06 20:44 13.05269 -59.57843 1398 ft 154 kts 79°
2026-05-06 20:45 13.05541 -59.56828 1284 ft 143 kts 73°
2026-05-06 20:45 13.05836 -59.55836 965 ft 143 kts 76°
2026-05-06 20:45 13.06070 -59.54902 836 ft 131 kts 77°
2026-05-06 20:45 13.06283 -59.53987 708 ft 131 kts 77°
2026-05-06 20:46 13.06517 -59.53071 589 ft 135 kts 76°
2026-05-06 20:46 13.06746 -59.52142 516 ft 134 kts 77°
2026-05-06 20:46 13.06979 -59.51208 334 ft 135 kts 77°
2026-05-06 20:46 13.07204 -59.50277 176 ft 126 kts 78°
2026-05-06 20:47 13.07368 -59.49604 170 ft 73 kts 78°
2026-05-06 20:47 13.07470 -59.49175 171 ft 47 kts 73°
2026-05-06 20:47 13.07568 -59.48949 172 ft 27 kts 36°
2026-05-06 20:47 13.07699 -59.48821 173 ft 25 kts 49°
2026-05-06 20:48 13.07792 -59.48699 175 ft 15 kts 78°
2026-05-06 20:48 13.07854 -59.48681 175 ft 9 kts 343°
2026-05-06 20:48 13.07896 -59.48692 176 ft 0 kts 351°